Wind_Speed
11 10 9 9 9 9 8 7 7 6 6 6 6 6 7 7 7 7 7 7 6 6 6 6 6 5 5 5 5 4 4 4 5 5 5 5 5 6 6 6 5 5 6
10 10 10 10 8 8 8 7 6 5 5 5 6 6 7 7 7 7 7 7 7 7 7 7 6 6 6 5 5 5 4 5 6 6 5 6 6 6 7 7 7 7 7
8 9 9 9 8 8 7 7 6 6 6 6 6 6 7 7 8 8 9 8 8 8 7 8 8 8 7 6 6 6 5 6 6 7 7 7 7 7 7 8 8 8 8
7 8 9 8 7 7 7 6 7 6 6 6 6 6 6 7 8 9 9 9 8 8 9 9 9 9 8 8 7 7 7 7 7 8 8 8 8 8 8 8 9 9 9
8 7 8 9 7 6 6 6 6 6 5 5 6 6 7 8 8 9 9 10 10 9 9 10 9 10 10 9 8 8 8 8 8 8 9 9 9 8 8 8 9 9 10
8 7 8 8 6 6 6 7 7 7 6 6 6 7 7 8 8 9 10 10 11 11 11 10 10 10 10 10 9 9 9 9 9 9 9 9 9 9 9 9 9 10 11
7 6 7 6 6 6 7 7 8 8 8 7 8 8 9 9 10 10 11 11 12 12 12 11 11 11 11 10 10 10 9 10 10 10 10 10 10 10 10 10 10 10 11
8 7 7 8 7 7 8 8 8 8 9 9 9 9 10 10 11 11 11 12 12 12 12 12 12 12 12 11 11 10 10 10 10 11 11 11 11 11 11 12 12 12 13
9 10 9 9 9 8 9 9 9 8 9 10 10 11 11 11 11 11 12 12 13 13 13 13 13 13 12 12 12 12 12 11 11 12 12 12 12 13 13 13 14 14 14
10 11 11 12 11 9 9 9 9 9 9 10 11 12 12 11 11 12 12 13 13 13 13 14 14 13 13 12 12 13 13 13 13 13 13 13 13 14 15 15 15 16 16
12 12 13 14 11 10 10 8 9 10 10 11 12 13 13 13 13 13 13 13 14 14 14 14 14 14 13 14 14 15 15 14 14 14 14 14 15 15 16 17 17 17 17
13 13 13 12 11 11 12 11 11 11 12 13 13 14 14 14 14 15 14 14 14 15 15 15 15 15 15 15 15 16 16 15 15 15 16 16 17 17 18 18 19 19 19
14 14 13 12 12 12 13 14 13 12 13 14 14 15 15 15 16 16 15 15 16 16 16 17 17 17 17 17 17 17 16 16 16 17 17 17 17 17 18 19 20 20 21
15 15 13 13 14 15 15 14 14 13 14 14 15 16 16 16 17 17 17 17 16 17 17 18 18 18 19 19 19 19 18 18 18 19 19 19 18 18 19 20 21 21 22
17 17 17 16 15 15 15 15 16 15 14 15 16 17 17 17 17 17 17 18 18 18 19 20 20 20 20 21 20 20 19 19 19 19 19 19 19 20 21 22 22 22 22
18 18 18 17 16 16 16 16 16 17 17 17 17 17 18 19 19 19 19 19 19 19 20 21 21 21 21 21 21 21 20 20 20 20 20 20 22 22 23 24 25 24 24
19 19 19 19 19 19 18 17 18 20 20 19 18 19 19 20 20 20 20 20 20 21 22 23 22 22 22 22 22 21 21 21 21 22 23 23 24 24 25 25 25 25 25
21 21 22 21 21 21 20 19 20 20 20 19 19 19 20 20 21 22 22 22 22 22 23 23 22 23 23 23 23 23 23 23 22 23 24 24 25 25 26 26 26 26 26
24 24 24 23 23 23 21 20 21 21 20 20 20 21 22 22 23 24 24 24 24 24 25 24 24 25 25 24 24 24 25 24 24 25 26 26 27 27 28 28 27 27 27
25 26 26 25 25 24 23 22 22 22 22 22 23 23 24 24 25 25 25 25 26 27 27 26 27 26 26 27 27 27 27 27 27 27 28 28 29 29 29 29 29 29 28
27 27 27 26 26 26 25 25 23 23 24 25 25 25 25 25 26 26 26 27 27 28 27 27 28 28 28 29 29 29 28 29 29 30 30 30 30 31 31 31 31 30 30
29 28 28 28 28 28 27 26 26 26 26 27 27 27 27 27 27 28 28 28 28 29 29 29 29 29 30 30 30 29 29 29 30 30 31 31 31 32 32 32 31 30 30
31 30 30 30 30 30 29 29 29 29 28 28 28 28 28 28 28 29 29 30 30 30 30 30 30 30 30 30 30 30 30 31 31 31 31 31 30 31 31 31 30 30 30
34 33 32 32 32 32 32 31 31 30 31 30 30 30 30 30 30 30 31 31 31 31 30 30 31 31 30 30 30 31 31 31 31 30 30 31 31 30 30 29 29 29 30
33 33 33 33 33 33 33 33 32 32 32 32 31 31 31 31 31 31 31 31 32 31 31 31 31 31 31 31 31 31 31 31 31 31 31 31 31 30 30 29 29 29 29
33 33 33 33 33 33 33 33 33 33 32 32 31 31 32 32 32 32 32 32 32 32 31 31 32 32 32 31 31 31 31 31 30 30 29 30 30 30 29 28 28 27 27
Wind_Direction
22 19 24 23 22 25 27 32 38 39 37 35 30 26 25 25 23 20 22 18 17 17 13 13 12 4 355 350 349 344 337 329 324 318 315 316 315 312 314 313 308 309 310
20 18 13 15 21 26 24 22 24 25 20 16 15 14 15 13 11 12 11 13 10 2 3 9 2 352 344 335 328 325 320 316 317 317 314 311 310 311 307 308 305 310 310
11 10 7 11 17 21 23 19 17 15 11 5 3 6 10 7 4 4 5 5 2 359 358 357 354 351 341 332 321 314 311 311 313 313 309 306 304 307 303 304 304 305 304
357 6 2 -0 5 10 15 15 12 10 6 2 358 358 0 357 356 358 1 359 356 352 348 345 342 340 336 329 321 317 310 303 305 309 309 307 305 305 302 305 305 305 300
350 357 355 354 356 359 1 1 2 3 3 0 355 355 353 348 346 349 350 349 346 341 338 336 335 333 330 321 318 314 310 304 302 301 305 309 307 304 303 306 309 306 305
338 348 349 353 352 344 347 348 349 351 349 348 347 345 344 343 340 337 338 339 339 335 330 329 329 326 326 323 320 317 311 306 306 302 302 306 306 304 305 305 308 306 304
321 342 344 344 344 340 334 341 342 342 339 335 335 336 334 335 334 332 331 331 331 332 330 330 327 322 317 317 318 317 310 306 303 301 302 303 302 300 300 303 304 304 305
305 325 331 333 332 338 333 327 331 335 334 330 326 326 325 324 325 326 327 327 326 326 327 328 326 322 315 311 310 309 309 305 300 303 304 303 300 299 296 300 301 303 304
300 307 314 319 321 323 324 324 324 324 325 326 324 320 317 319 320 320 321 322 324 325 325 326 325 323 318 313 309 306 307 304 300 304 305 304 300 298 298 298 299 300 300
293 298 305 311 312 313 316 316 313 313 313 315 320 320 319 317 316 317 319 321 323 325 326 324 321 317 316 313 311 308 306 306 305 303 303 301 302 303 301 299 298 299 299
298 302 303 310 308 307 310 309 308 310 310 310 313 313 313 313 313 313 314 315 316 317 317 317 317 316 313 310 309 308 309 306 306 304 302 298 295 298 298 297 295 296 295
290 294 300 301 303 303 303 305 303 305 308 309 310 310 309 307 305 306 308 308 309 311 313 313 313 312 311 309 309 310 309 305 305 304 306 303 296 296 296 296 295 295 294
285 290 296 298 298 302 301 302 301 300 303 304 305 307 307 305 303 303 303 305 306 307 310 311 311 310 309 308 308 306 306 305 304 303 303 302 299 299 298 298 295 294 294
287 290 294 296 297 300 302 299 299 297 296 297 301 305 306 306 303 301 300 301 301 303 306 308 308 308 306 307 306 304 302 302 301 301 300 299 299 299 299 299 297 296 295
289 292 295 292 292 295 295 295 297 296 293 293 296 299 301 303 304 304 302 301 299 298 301 303 303 303 304 303 303 305 301 299 299 300 300 299 298 300 298 296 296 295 297
287 291 289 290 289 292 294 294 293 293 295 296 295 297 300 301 300 300 301 301 299 298 299 300 300 301 303 302 302 302 298 298 297 298 301 303 301 299 298 297 296 295 296
284 285 285 287 289 291 291 287 291 291 293 294 294 296 298 300 300 299 298 299 299 300 300 301 300 301 303 302 304 303 301 298 296 296 296 298 299 299 297 297 297 296 295
280 282 282 282 285 288 288 290 291 292 291 291 293 295 297 298 298 299 300 299 297 298 300 300 300 301 301 302 302 300 301 298 295 294 293 294 296 296 295 295 295 294 294
280 281 282 282 283 284 284 286 290 289 288 289 291 293 295 296 297 298 297 297 297 298 300 304 302 302 302 302 301 299 298 296 295 294 293 293 293 294 294 293 293 292 293
279 282 282 281 280 282 282 283 284 286 286 288 289 290 293 294 296 297 297 297 298 299 301 301 302 302 302 301 300 299 299 297 295 294 294 294 294 293 292 292 292 292 292
277 279 281 283 281 281 281 281 281 284 284 285 286 288 291 294 295 297 297 298 298 299 300 300 300 300 300 299 299 298 298 297 296 296 295 295 295 293 292 291 291 291 290
278 280 281 283 281 279 279 278 280 282 282 281 283 286 289 292 294 296 296 296 297 297 297 298 298 298 298 298 298 298 299 299 298 297 296 295 294 293 292 292 292 292 290
276 277 279 281 279 277 277 278 279 280 281 280 281 284 287 289 291 292 294 295 296 296 296 297 297 297 297 298 298 298 299 300 299 299 297 297 296 296 295 293 292 291 290
276 277 277 278 277 276 276 277 278 279 280 280 281 284 286 288 289 290 291 292 293 294 295 295 296 296 296 297 298 298 298 298 299 298 298 298 297 297 296 294 293 293 292
277 277 276 275 274 274 274 275 276 276 278 279 280 281 284 286 286 287 288 290 291 291 292 294 295 295 295 296 297 298 297 297 298 298 297 297 296 296 296 294 294 294 295
275 276 274 273 272 272 273 274 273 274 276 278 279 280 282 284 285 286 287 289 290 289 291 293 295 297 296 296 296 296 296 297 297 297 296 295 296 298 297 296 296 295 295
Height
5918 5916 5915 5914 5913 5912 5910 5910 5908 5908 5907 5906 5905 5904 5903 5902 5901 5900 5899 5898 5896 5895 5894 5893 5892 5891 5889 5888 5887 5886 5886 5885 5884 5883 5882 5881 5879 5878 5876 5875 5874 5873 5871
5918 5917 5915 5914 5913 5912 5911 5910 5909 5908 5907 5906 5905 5904 5903 5902 5901 5900 5898 5897 5896 5895 5894 5892 5891 5890 5889 5887 5886 5885 5884 5883 5882 5881 5880 5879 5879 5877 5875 5874 5872 5871 5869
5918 5917 5916 5915 5913 5912 5911 5910 5909 5908 5907 5906 5905 5904 5903 5902 5901 5899 5898 5897 5895 5894 5893 5891 5890 5889 5887 5886 5885 5884 5883 5882 5880 5879 5878 5877 5876 5875 5874 5872 5871 5869 5867
5918 5917 5916 5915 5913 5912 5911 5910 5909 5908 5907 5906 5905 5904 5903 5902 5901 5899 5898 5896 5895 5893 5892 5890 5889 5887 5886 5884 5883 5882 5881 5880 5878 5877 5876 5875 5873 5872 5871 5869 5868 5866 5865
5917 5916 5915 5914 5913 5912 5911 5910 5908 5907 5906 5905 5904 5903 5902 5901 5900 5898 5897 5895 5893 5892 5890 5889 5887 5885 5884 5882 5881 5879 5878 5877 5876 5874 5873 5872 5871 5869 5868 5867 5865 5863 5862
5916 5915 5914 5912 5911 5911 5910 5909 5908 5906 5906 5905 5904 5903 5901 5900 5899 5897 5895 5894 5892 5890 5888 5887 5885 5883 5882 5880 5879 5877 5875 5874 5873 5872 5870 5869 5868 5866 5865 5864 5863 5861 5859
5913 5913 5912 5911 5910 5909 5908 5907 5906 5905 5904 5903 5902 5901 5900 5898 5897 5895 5894 5892 5890 5888 5886 5885 5883 5881 5879 5878 5876 5874 5873 5871 5870 5869 5867 5866 5865 5863 5862 5861 5860 5858 5857
5911 5911 5911 5909 5908 5907 5906 5906 5905 5904 5903 5902 5901 5899 5898 5897 5895 5893 5892 5890 5888 5886 5884 5882 5880 5878 5876 5875 5873 5872 5870 5868 5866 5865 5864 5863 5861 5860 5859 5857 5856 5855 5854
5910 5909 5908 5907 5907 5906 5905 5904 5903 5902 5901 5900 5899 5897 5896 5894 5892 5891 5889 5888 5886 5884 5882 5879 5877 5876 5874 5872 5871 5869 5867 5865 5863 5862 5860 5859 5858 5856 5855 5854 5852 5852 5850
5908 5906 5905 5904 5904 5904 5903 5902 5901 5900 5899 5898 5896 5895 5893 5892 5890 5889 5887 5885 5883 5881 5879 5877 5875 5873 5871 5869 5867 5866 5864 5862 5860 5859 5857 5855 5854 5852 5851 5849 5848 5846 5845
5904 5903 5902 5901 5901 5900 5900 5898 5898 5898 5896 5895 5894 5892 5891 5889 5888 5886 5884 5882 5880 5878 5876 5874 5872 5870 5868 5866 5864 5862 5860 5858 5856 5854 5853 5851 5850 5848 5846 5844 5843 5841 5840
5901 5901 5900 5899 5898 5898 5897 5896 5895 5894 5893 5892 5891 5889 5888 5886 5884 5883 5881 5879 5877 5875 5873 5871 5868 5866 5864 5862 5860 5858 5856 5854 5852 5850 5848 5846 5844 5843 5841 5839 5838 5836 5834
5898 5897 5896 5896 5895 5895 5894 5892 5891 5890 5889 5888 5887 5885 5884 5882 5880 5879 5877 5875 5874 5872 5869 5867 5864 5862 5860 5858 5856 5853 5851 5850 5847 5845 5844 5841 5839 5837 5836 5834 5832 5830 5828
5894 5893 5893 5892 5891 5891 5890 5889 5887 5886 5885 5884 5882 5881 5880 5878 5876 5874 5872 5871 5869 5867 5865 5863 5860 5858 5855 5853 5850 5848 5846 5844 5842 5840 5838 5836 5834 5832 5830 5829 5827 5824 5822
5890 5889 5889 5888 5887 5886 5886 5885 5884 5882 5881 5880 5878 5877 5875 5873 5871 5869 5867 5865 5864 5862 5860 5857 5855 5852 5850 5847 5844 5842 5840 5838 5836 5835 5832 5830 5828 5826 5824 5823 5821 5818 5816
5885 5885 5884 5883 5883 5882 5881 5880 5879 5878 5877 5875 5873 5872 5870 5868 5866 5864 5862 5860 5858 5856 5854 5851 5849 5846 5844 5841 5839 5837 5834 5832 5831 5829 5827 5824 5822 5820 5818 5816 5814 5811 5809
5880 5880 5879 5878 5878 5877 5876 5875 5873 5872 5871 5870 5868 5866 5865 5863 5861 5858 5856 5855 5853 5850 5848 5845 5843 5840 5838 5836 5833 5831 5829 5827 5824 5822 5820 5818 5816 5814 5811 5809 5807 5804 5802
5875 5874 5873 5872 5872 5871 5870 5869 5868 5866 5865 5864 5862 5861 5859 5858 5855 5852 5850 5848 5846 5844 5842 5839 5836 5834 5832 5830 5827 5825 5823 5821 5818 5815 5813 5811 5809 5806 5804 5802 5800 5797 5795
5868 5867 5866 5866 5865 5864 5864 5863 5862 5860 5859 5858 5856 5855 5853 5851 5849 5847 5844 5842 5840 5838 5835 5832 5830 5828 5825 5823 5820 5818 5816 5813 5811 5808 5806 5804 5801 5799 5796 5794 5791 5789 5787
5862 5861 5859 5858 5858 5858 5857 5856 5855 5854 5853 5852 5850 5848 5847 5845 5843 5840 5838 5835 5833 5830 5828 5826 5823 5821 5818 5816 5814 5811 5809 5806 5803 5801 5798 5795 5793 5790 5787 5785 5783 5781 5778
5854 5853 5852 5851 5851 5850 5850 5849 5848 5847 5846 5845 5843 5841 5840 5838 5836 5833 5831 5828 5826 5823 5821 5818 5816 5813 5811 5808 5806 5803 5801 5798 5795 5793 5790 5787 5784 5781 5779 5776 5774 5771 5769
5845 5845 5844 5843 5842 5842 5841 5840 5839 5839 5838 5837 5835 5834 5832 5830 5828 5826 5823 5820 5818 5816 5813 5811 5808 5806 5803 5800 5798 5795 5792 5789 5786 5784 5781 5778 5775 5772 5770 5767 5764 5762 5759
5837 5837 5836 5835 5834 5833 5833 5832 5831 5831 5829 5828 5827 5826 5824 5822 5820 5818 5816 5813 5810 5808 5806 5803 5800 5798 5795 5792 5790 5787 5783 5780 5777 5774 5771 5769 5766 5763 5760 5758 5755 5752 5749
5828 5828 5827 5826 5826 5825 5824 5823 5822 5821 5820 5820 5819 5817 5815 5814 5812 5809 5807 5805 5802 5800 5797 5795 5792 5789 5786 5784 5781 5778 5775 5772 5768 5766 5763 5760 5757 5754 5752 5749 5746 5743 5740
5818 5818 5817 5816 5816 5815 5815 5814 5813 5812 5811 5810 5809 5808 5806 5804 5803 5800 5798 5796 5794 5791 5789 5786 5784 5781 5778 5775 5772 5769 5766 5763 5760 5757 5754 5751 5748 5746 5743 5740 5737 5735 5732
5808 5807 5806 5806 5806 5805 5804 5804 5803 5802 5802 5801 5800 5798 5797 5795 5793 5791 5789 5787 5785 5782 5780 5777 5775 5772 5769 5765 5763 5760 5757 5754 5751 5748 5746 5743 5740 5737 5735 5732 5729 5726 5724